TimeCDT,TemperatureF,Dew PointF,Humidity,Sea Level PressureIn,VisibilityMPH,Wind Direction,Wind SpeedMPH,Gust SpeedMPH,PrecipitationIn,Events,Conditions,WindDirDegrees,DateUTC
12:13 AM,69.8,66.2,88,29.77,10.0,SE,8.1,-,N/A,,Clear,130,2013-06-25 05:13:00
12:33 AM,69.8,64.4,83,29.78,10.0,SE,6.9,-,N/A,,Clear,130,2013-06-25 05:33:00
12:53 AM,69.8,64.4,83,29.77,10.0,SE,8.1,-,N/A,,Clear,130,2013-06-25 05:53:00
1:13 AM,69.8,64.4,83,29.77,10.0,SE,9.2,-,N/A,,Clear,130,2013-06-25 06:13:00
1:33 AM,69.8,64.4,83,29.78,10.0,SE,9.2,-,N/A,,Clear,140,2013-06-25 06:33:00
1:53 AM,69.8,64.4,83,29.77,10.0,SE,8.1,-,N/A,,Clear,130,2013-06-25 06:53:00
2:14 AM,69.8,64.4,83,29.77,10.0,SE,9.2,-,N/A,,Clear,140,2013-06-25 07:14:00
2:33 AM,69.8,64.4,83,29.77,10.0,SE,9.2,-,N/A,,Clear,130,2013-06-25 07:33:00
2:53 AM,69.8,64.4,83,29.77,10.0,SE,9.2,-,N/A,,Clear,140,2013-06-25 07:53:00
3:14 AM,69.8,64.4,83,29.77,10.0,SE,8.1,-,N/A,,Clear,140,2013-06-25 08:14:00
3:33 AM,68.0,64.4,88,29.76,10.0,SE,8.1,-,N/A,,Clear,130,2013-06-25 08:33:00
3:53 AM,68.0,64.4,88,29.74,10.0,ESE,8.1,-,N/A,,Clear,120,2013-06-25 08:53:00
4:13 AM,68.0,64.4,88,29.74,10.0,ESE,6.9,-,N/A,,Clear,110,2013-06-25 09:13:00
4:33 AM,68.0,64.4,88,29.73,10.0,ESE,8.1,-,N/A,,Clear,120,2013-06-25 09:33:00
4:53 AM,68.0,64.4,88,29.74,10.0,ESE,8.1,-,N/A,,Clear,110,2013-06-25 09:53:00
5:14 AM,66.2,64.4,94,29.75,10.0,SE,8.1,-,N/A,,Scattered Clouds,130,2013-06-25 10:14:00
5:33 AM,66.2,64.4,94,29.75,7.0,SE,9.2,-,N/A,,Clear,130,2013-06-25 10:33:00
5:54 AM,66.2,64.4,94,29.75,7.0,SE,10.4,-,N/A,,Clear,140,2013-06-25 10:54:00
6:13 AM,66.2,64.4,94,29.75,5.0,SE,9.2,-,N/A,,Clear,130,2013-06-25 11:13:00
6:33 AM,68.0,64.4,88,29.74,5.0,SE,9.2,-,N/A,,Clear,140,2013-06-25 11:33:00
6:54 AM,68.0,64.4,88,29.75,7.0,SE,8.1,-,N/A,,Scattered Clouds,130,2013-06-25 11:54:00
7:13 AM,69.8,64.4,83,29.75,7.0,SE,8.1,-,N/A,,Overcast,140,2013-06-25 12:13:00
7:33 AM,69.8,66.2,88,29.75,10.0,SE,9.2,-,N/A,,Overcast,140,2013-06-25 12:33:00
7:53 AM,69.8,66.2,88,29.74,10.0,SE,11.5,-,N/A,,Overcast,140,2013-06-25 12:53:00
8:13 AM,69.8,66.2,88,29.74,10.0,SSE,10.4,-,N/A,,Overcast,150,2013-06-25 13:13:00
8:33 AM,71.6,66.2,83,29.74,10.0,SSE,10.4,-,N/A,,Overcast,150,2013-06-25 13:33:00
8:53 AM,71.6,66.2,83,29.75,10.0,South,9.2,17.3,N/A,,Overcast,170,2013-06-25 13:53:00
9:13 AM,71.6,66.2,83,29.75,7.0,South,10.4,-,N/A,,Overcast,180,2013-06-25 14:13:00
9:34 AM,71.6,66.2,83,29.75,5.0,SSE,8.1,-,N/A,,Overcast,150,2013-06-25 14:34:00
9:54 AM,71.6,68.0,88,29.75,7.0,SSE,10.4,-,N/A,,Overcast,150,2013-06-25 14:54:00
10:14 AM,73.4,68.0,83,29.74,10.0,SE,8.1,-,N/A,,Overcast,140,2013-06-25 15:14:00
10:33 AM,75.2,69.8,83,29.73,10.0,SE,9.2,-,N/A,,Mostly Cloudy,130,2013-06-25 15:33:00
10:53 AM,78.8,69.8,74,29.73,10.0,SE,9.2,17.3,N/A,,Scattered Clouds,140,2013-06-25 15:53:00
11:13 AM,80.6,69.8,70,29.73,10.0,SE,10.4,-,N/A,,Scattered Clouds,140,2013-06-25 16:13:00
11:33 AM,80.6,71.6,74,29.74,10.0,SSE,11.5,17.3,N/A,,Scattered Clouds,150,2013-06-25 16:33:00
11:53 AM,82.4,71.6,70,29.73,10.0,SE,15.0,19.6,N/A,,Scattered Clouds,140,2013-06-25 16:53:00
12:14 PM,82.4,71.6,70,29.73,10.0,SSE,11.5,-,N/A,,Scattered Clouds,150,2013-06-25 17:14:00
12:33 PM,84.2,71.6,66,29.73,10.0,SSE,10.4,-,N/A,,Scattered Clouds,150,2013-06-25 17:33:00
12:53 PM,84.2,71.6,66,29.72,10.0,South,11.5,-,N/A,,Scattered Clouds,170,2013-06-25 17:53:00
1:14 PM,84.2,71.6,66,29.72,10.0,SSE,8.1,-,N/A,,Scattered Clouds,160,2013-06-25 18:14:00
1:33 PM,87.8,71.6,58,29.71,10.0,South,6.9,-,N/A,,Scattered Clouds,170,2013-06-25 18:33:00
1:54 PM,87.8,71.6,58,29.70,10.0,SE,8.1,-,N/A,,Clear,130,2013-06-25 18:54:00
2:13 PM,89.6,71.6,55,29.69,10.0,SE,6.9,-,N/A,,Clear,140,2013-06-25 19:13:00
2:33 PM,89.6,71.6,55,29.70,10.0,SSE,10.4,-,N/A,,Clear,150,2013-06-25 19:33:00
2:53 PM,89.6,71.6,55,29.70,10.0,SSE,10.4,17.3,N/A,,Clear,160,2013-06-25 19:53:00
3:13 PM,89.6,71.6,55,29.70,10.0,SE,11.5,16.1,N/A,,Clear,130,2013-06-25 20:13:00
3:33 PM,89.6,71.6,55,29.70,10.0,ESE,10.4,-,N/A,,Clear,120,2013-06-25 20:33:00
3:53 PM,89.6,71.6,55,29.70,10.0,ESE,9.2,-,N/A,,Clear,120,2013-06-25 20:53:00
4:13 PM,89.6,71.6,55,29.70,10.0,ESE,11.5,-,N/A,,Clear,120,2013-06-25 21:13:00
4:33 PM,89.6,71.6,55,29.69,10.0,SE,10.4,-,N/A,,Clear,130,2013-06-25 21:33:00
4:53 PM,89.6,71.6,55,29.69,10.0,SE,11.5,-,N/A,,Clear,130,2013-06-25 21:53:00
5:13 PM,89.6,69.8,52,29.69,10.0,ESE,13.8,-,N/A,,Clear,120,2013-06-25 22:13:00
5:34 PM,87.8,71.6,58,29.68,10.0,SE,13.8,-,N/A,,Clear,130,2013-06-25 22:34:00
5:53 PM,87.8,71.6,58,29.68,10.0,ESE,12.7,17.3,N/A,,Clear,120,2013-06-25 22:53:00
6:13 PM,87.8,71.6,58,29.68,10.0,SE,9.2,-,N/A,,Clear,130,2013-06-25 23:13:00
6:33 PM,86.0,71.6,62,29.68,10.0,ESE,11.5,17.3,N/A,,Clear,120,2013-06-25 23:33:00
6:53 PM,86.0,71.6,62,29.68,10.0,SE,13.8,18.4,N/A,,Clear,130,2013-06-25 23:53:00
7:13 PM,86.0,71.6,62,29.68,10.0,SE,10.4,19.6,N/A,,Clear,130,2013-06-26 00:13:00
7:33 PM,86.0,71.6,62,29.67,10.0,SE,12.7,17.3,N/A,,Clear,130,2013-06-26 00:33:00
7:53 PM,84.2,71.6,66,29.67,10.0,SE,11.5,18.4,N/A,,Clear,130,2013-06-26 00:53:00
8:13 PM,84.2,71.6,66,29.66,10.0,SE,10.4,-,N/A,,Clear,130,2013-06-26 01:13:00
8:33 PM,82.4,71.6,70,29.66,10.0,SE,8.1,-,N/A,,Clear,140,2013-06-26 01:33:00
8:54 PM,82.4,71.6,70,29.66,10.0,SE,6.9,-,N/A,,Clear,130,2013-06-26 01:54:00
9:13 PM,80.6,71.6,74,29.65,10.0,SE,6.9,-,N/A,,Clear,130,2013-06-26 02:13:00
9:33 PM,80.6,71.6,74,29.66,10.0,SE,4.6,-,N/A,,Clear,130,2013-06-26 02:33:00
9:53 PM,78.8,71.6,78,29.66,10.0,SE,5.8,-,N/A,,Clear,130,2013-06-26 02:53:00
10:14 PM,78.8,71.6,78,29.67,10.0,SE,6.9,-,N/A,,Clear,130,2013-06-26 03:14:00
10:34 PM,78.8,71.6,78,29.67,10.0,SE,5.8,-,N/A,,Clear,140,2013-06-26 03:34:00
10:53 PM,78.8,71.6,78,29.67,10.0,SE,5.8,-,N/A,,Clear,130,2013-06-26 03:53:00
11:13 PM,78.8,71.6,78,29.66,10.0,SE,6.9,-,N/A,,Clear,140,2013-06-26 04:13:00
11:33 PM,78.8,71.6,78,29.65,10.0,SSE,8.1,-,N/A,,Clear,150,2013-06-26 04:33:00
11:53 PM,77.0,71.6,83,29.65,10.0,SSE,6.9,-,N/A,,Clear,150,2013-06-26 04:53:00